Location: *
(48.7358°N, 0.3111°E)
Time: 16:45:30
(UTC+00:00)

Helios 1A Rocket - Pass Details

Date: 22 October 2019
Orbit: 565 x 586 km, 98.3° (Epoch: 12 November)

Event Time Altitude Azimuth Distance (km) Brightness Sun altitude
Rises 05:21:05 0° 16° (NNE) 2,828 6.6 -11.9°
Reaches altitude 10° 05:23:17 10° 19° (NNE) 1,923 5.8 -11.5°
Maximum altitude 05:27:26 67° 103° (ESE) 641 3.4 -10.8°
Drops below altitude 10° 05:31:33 10° 186° (S) 1,906 5.6 -10.1°
Sets 05:33:42 0° 189° (S) 2,799 6.4 -9.8°
